Location: Cisewo
(53.3833°N, 14.9000°E)
Time: 04:53:00
(UTC+00:00)

NOAA 18 - Pass Details

Date: 27 September 2021
Orbit: 841 x 860 km, 99.0° (Epoch: 17 October)

Event Time Altitude Azimuth Distance (km) Brightness Sun altitude
Exits shadow 17:37:34 - 72° (ENE) 2,709 7.3 -8.4°
Reaches altitude 10° 17:38:59 10° 59° (ENE) 2,479 7.2 -8.6°
Maximum altitude 17:40:41 12° 41° (NE) 2,376 7.2 -8.9°
Drops below altitude 10° 17:42:24 10° 23° (NNE) 2,487 7.5 -9.1°
Sets 17:46:35 0° 352° (N) 3,432 8.6 -9.8°
